RH
83 62 27 22 22 15 15 18 25 28 24 16 10 7 7 7 7 6 6 7 7 6 6 6 5 5 6 7 10 12 14 18 19 19 19 17 15 14 13 11 10 10 10 9 9 9 8 9 12 15 16 17 17 18 18 20 21 28 50 50 52 72 66 62 63 49 44 47 45 33 36 49 46 44 49 52 53 53 57 55 56 57 56 57 59 60 63 62
54 54 23 11 12 9 10 10 10 9 8 7 8 8 8 8 7 8 8 7 7 7 7 7 7 6 6 8 10 13 17 20 20 20 19 17 15 14 13 11 11 12 11 11 10 9 9 11 13 15 16 16 18 20 21 22 21 41 62 49 57 78 62 51 48 40 39 39 40 31 33 47 46 43 46 51 53 57 63 55 49 50 49 51 56 62 66 66
28 33 20 11 11 11 10 10 10 9 9 9 9 9 9 9 9 9 8 8 7 7 7 7 8 6 7 7 10 15 18 20 20 20 18 15 15 14 13 11 12 12 12 12 12 12 11 12 14 15 16 16 18 21 23 25 25 35 45 50 68 75 55 40 32 30 32 32 34 31 34 43 43 45 49 52 54 66 71 52 43 43 38 41 49 58 66 68
16 15 13 12 12 11 10 11 10 10 10 9 10 10 9 9 9 9 9 9 7 7 7 7 8 7 8 7 11 16 18 21 19 18 18 15 15 14 13 13 12 12 13 14 14 14 13 13 14 15 15 15 17 20 22 25 29 32 40 57 64 57 47 33 26 29 27 28 32 32 35 35 36 44 52 53 54 67 60 37 37 40 35 39 44 52 62 67
16 15 13 13 12 11 11 11 10 10 10 10 10 10 10 10 9 9 9 9 8 8 7 7 8 7 8 7 11 15 19 24 22 18 17 15 14 14 13 12 11 12 13 14 15 14 14 14 14 15 15 14 17 18 20 23 28 35 42 48 45 42 39 29 27 28 25 27 28 31 35 32 34 41 49 56 59 55 40 29 34 37 37 40 41 46 55 62
17 17 16 15 12 12 12 11 11 11 11 11 12 11 11 11 10 10 9 9 9 8 7 8 7 7 8 7 12 16 18 24 22 16 15 13 14 14 14 12 12 13 14 16 15 14 14 14 14 15 15 16 21 19 20 24 25 34 40 34 32 34 32 27 28 26 24 26 25 28 33 32 34 39 42 51 54 38 27 33 36 38 42 41 40 42 44 51
15 15 15 15 12 11 11 11 11 11 12 12 12 12 11 11 10 10 10 9 9 8 8 7 7 8 8 8 12 16 18 21 18 13 13 13 15 15 14 12 12 13 16 16 15 15 14 14 14 13 16 19 22 22 23 26 24 31 38 32 29 31 29 28 27 26 26 25 25 28 30 30 33 38 39 38 33 23 24 31 32 35 38 36 35 34 36 44
13 13 12 13 13 12 11 11 11 11 13 13 13 13 11 11 10 10 11 9 8 9 8 8 8 7 7 8 12 18 19 17 13 11 12 14 16 16 14 13 13 15 17 16 15 15 14 14 14 13 17 19 21 24 25 24 27 33 36 31 29 29 29 29 28 27 27 26 27 28 29 27 27 35 39 31 21 19 24 25 27 28 27 27 25 25 31 40
12 12 11 12 12 11 11 11 12 13 14 15 15 12 11 11 11 12 10 9 9 9 8 7 8 8 11 14 18 22 18 14 12 10 11 15 17 16 15 14 14 16 15 14 14 13 15 16 16 14 16 19 24 29 26 20 25 31 31 29 28 29 29 28 29 29 28 28 28 28 30 27 25 32 33 25 20 21 23 22 24 23 22 22 21 21 25 33
11 12 12 12 12 12 12 12 13 15 14 14 13 11 11 11 12 11 9 9 8 8 10 10 13 16 18 20 22 22 17 14 13 11 11 14 17 17 15 15 15 17 15 13 14 15 17 16 17 15 14 20 25 29 28 24 27 28 28 28 27 29 29 27 27 28 27 26 27 30 32 29 27 33 31 22 21 23 22 23 22 21 21 20 21 22 23 29
13 13 13 12 12 12 12 14 15 14 13 12 11 12 12 12 11 10 9 10 10 12 14 15 17 17 17 18 18 18 16 13 12 12 10 12 17 18 17 17 18 18 16 15 17 18 18 18 18 14 15 21 27 29 26 26 27 25 26 27 28 31 26 27 29 26 27 25 25 31 34 32 34 36 31 20 20 23 22 23 21 20 20 20 22 22 23 27
12 11 10 10 11 11 13 14 14 13 12 11 13 13 12 11 10 10 12 13 16 18 18 19 19 17 16 16 16 15 13 11 12 11 10 11 14 18 19 19 19 19 19 18 19 20 20 20 17 16 19 22 28 29 25 28 27 26 29 28 39 51 37 28 34 30 28 28 24 28 28 31 46 42 24 19 21 23 22 22 21 20 20 20 22 22 22 25
8 8 8 8 9 10 12 13 13 12 11 13 14 12 10 10 11 14 17 18 20 19 20 21 21 19 19 17 16 13 12 12 12 10 11 10 11 17 19 19 20 19 20 20 20 20 19 21 20 19 20 23 30 27 25 27 22 26 35 40 55 64 48 31 35 36 28 29 27 26 22 21 40 37 17 20 23 22 24 23 21 21 21 21 22 23 23 24
8 9 8 9 9 11 12 12 13 12 12 14 13 11 11 12 15 18 18 19 19 19 21 21 20 21 19 19 17 13 12 12 11 11 11 10 12 18 19 19 20 19 21 21 20 20 19 22 21 19 20 25 26 25 39 44 41 43 36 56 70 50 47 45 41 43 31 30 30 28 33 24 24 26 18 20 22 23 26 22 21 21 21 22 22 24 25 24
10 10 10 11 10 11 12 12 12 11 13 14 13 12 12 14 17 18 18 18 17 17 18 19 22 22 19 18 17 14 11 11 12 11 10 13 15 17 19 20 19 19 21 20 21 20 20 21 17 18 19 21 26 38 58 59 65 65 31 50 76 49 53 54 41 52 43 37 35 26 38 37 25 25 21 21 23 25 27 25 25 24 22 23 23 24 24 24
9 9 10 10 11 12 12 13 13 12 14 14 14 15 16 17 18 17 18 16 16 17 17 20 23 21 21 19 15 13 10 11 14 10 10 15 15 16 17 18 19 20 20 20 21 19 19 20 18 18 14 23 44 52 55 56 69 76 41 37 60 50 50 43 34 54 50 41 40 29 34 38 28 24 22 24 25 27 32 31 26 23 22 21 21 23 23 23
7 7 8 8 9 10 11 12 12 13 15 15 15 16 16 17 16 17 17 16 17 17 15 17 21 22 21 18 13 12 11 12 12 9 11 15 16 18 17 17 19 18 19 20 19 18 21 23 23 24 26 42 59 44 30 41 54 67 61 48 55 57 49 42 39 46 47 40 42 42 41 38 30 25 23 22 20 23 28 27 23 22 20 20 20 20 20 21
7 6 7 7 7 8 9 10 12 15 16 15 15 15 16 16 17 17 16 17 16 16 16 12 16 22 19 15 14 13 13 13 12 9 10 14 17 18 18 19 19 18 22 20 17 21 20 21 28 34 39 47 58 48 26 25 30 39 53 49 53 63 56 54 50 46 50 43 38 41 39 35 30 25 21 19 20 21 24 23 21 20 19 19 20 19 20 20
6 7 7 6 7 7 8 9 12 17 16 16 16 16 17 16 16 16 15 17 15 18 22 15 14 19 16 15 15 14 14 13 12 11 10 14 17 17 19 18 17 17 18 17 21 26 23 28 36 33 38 43 49 53 34 28 37 42 54 53 50 56 50 50 54 58 58 43 36 36 32 31 28 25 23 20 22 22 22 23 19 19 18 19 20 20 21 20
7 7 6 7 7 7 8 9 15 19 17 17 16 16 16 14 15 15 13 14 13 15 18 15 14 15 14 15 15 13 13 13 14 13 10 12 15 17 17 16 18 19 25 33 32 28 29 42 44 33 44 53 49 57 53 53 62 56 60 63 59 61 50 42 50 60 53 39 41 42 37 36 30 29 26 20 22 22 22 22 19 17 17 19 21 21 22 20
7 6 7 7 6 8 8 10 16 20 18 17 16 18 21 18 14 13 11 13 15 16 17 15 15 15 15 15 17 14 10 11 14 14 13 12 16 16 13 21 27 24 38 52 41 36 42 42 38 41 58 60 58 71 67 60 66 59 55 55 53 57 50 38 44 57 52 38 42 44 37 33 27 26 24 22 24 22 23 23 20 18 16 18 21 21 23 22
7 7 8 7 7 8 8 12 19 19 16 16 17 22 25 21 16 14 15 17 17 19 20 18 15 16 17 16 18 15 9 12 13 13 16 13 15 15 12 30 43 38 49 55 41 43 48 34 29 45 63 63 67 76 60 51 64 62 51 44 38 41 45 43 45 60 57 38 38 45 40 31 26 25 25 26 25 21 21 22 21 20 18 18 19 21 23 22
6 8 8 8 8 7 8 14 18 17 16 18 17 16 17 17 16 15 17 20 22 23 24 21 17 16 18 18 18 15 10 13 15 15 17 15 15 17 16 36 62 57 53 60 49 31 21 22 37 54 58 52 55 64 56 49 58 56 42 35 35 34 33 33 39 53 54 41 44 51 44 32 26 27 25 22 22 20 17 16 16 18 19 20 20 21 23 23
8 8 8 9 9 7 9 14 16 18 19 17 14 13 18 20 19 19 21 26 30 29 26 24 21 16 18 18 16 17 14 15 21 18 17 20 19 23 25 40 63 55 48 68 65 31 13 28 51 60 59 49 40 49 54 44 49 59 50 37 38 36 28 28 38 47 44 43 50 46 35 30 26 26 24 24 26 21 14 14 14 15 18 21 21 22 23 23
8 8 9 9 9 8 9 14 17 19 18 14 13 17 22 22 19 18 24 34 36 34 31 25 22 18 18 19 16 19 17 15 21 21 20 22 22 30 33 36 39 35 47 68 54 27 23 39 47 47 54 52 40 44 49 41 42 51 48 39 37 35 34 43 51 46 34 33 41 39 30 30 31 26 24 33 37 24 16 18 16 17 19 21 23 23 22 21
8 9 10 8 9 9 9 15 16 17 18 13 12 19 21 23 21 13 26 49 44 32 30 24 21 21 19 18 18 20 19 16 19 22 21 19 23 28 30 37 32 27 52 59 37 31 35 43 47 45 51 51 43 45 47 48 41 30 33 42 46 45 45 53 53 42 34 29 33 37 32 30 29 23 27 41 39 24 18 21 20 20 22 23 26 25 22 22
8 10 9 9 10 8 10 13 12 16 20 15 14 16 15 20 20 10 26 49 38 25 27 25 21 21 21 21 19 17 15 14 16 20 21 18 23 23 24 39 32 28 53 42 19 33 42 42 48 49 51 47 42 42 45 49 38 25 37 49 52 50 48 55 49 40 45 41 41 47 35 31 34 27 33 40 29 21 21 23 23 23 24 25 26 25 23 22
8 9 10 11 9 8 10 10 11 14 16 17 16 12 15 22 19 17 29 31 21 23 28 24 19 18 22 24 18 15 15 16 16 18 21 20 20 20 26 37 34 42 57 33 13 32 41 40 43 45 48 44 42 44 45 41 27 27 50 60 57 54 55 64 57 58 68 46 41 53 35 30 44 36 32 33 22 20 25 26 26 26 27 28 27 25 24 23
6 9 11 10 9 9 9 12 16 12 11 18 13 11 19 18 14 22 29 22 18 29 30 24 22 18 22 28 23 19 19 18 18 18 22 23 19 22 29 37 45 55 55 37 35 45 45 45 45 43 43 40 45 54 51 40 28 34 56 63 63 67 71 74 68 74 78 50 40 52 36 28 42 36 25 24 23 23 28 31 28 27 29 30 30 27 25 24
6 10 9 11 12 9 9 17 20 11 10 16 12 15 17 18 39 45 28 22 22 27 30 23 21 22 25 28 22 21 23 21 23 21 19 21 19 21 31 38 42 52 57 51 48 49 51 56 54 44 39 38 46 59 57 48 44 46 53 49 46 57 64 75 86 73 58 57 56 54 46 32 31 37 28 21 24 25 28 33 31 30 32 32 33 31 27 27
8 9 9 11 11 10 12 14 16 13 13 15 12 15 12 27 65 56 22 22 24 22 27 25 30 42 44 31 15 23 37 30 27 29 27 31 32 27 30 35 35 49 73 62 37 37 44 53 58 46 41 42 40 46 51 57 61 51 43 34 28 41 44 55 80 61 38 58 63 51 53 40 30 40 35 24 29 32 30 32 34 35 34 34 35 33 30 30
9 9 11 12 10 14 14 10 14 15 14 16 11 16 27 34 47 41 27 24 22 28 31 27 39 57 58 38 19 34 47 31 31 44 49 51 48 37 31 38 33 30 49 45 24 30 37 47 59 48 45 46 34 33 38 49 58 42 35 41 38 44 44 44 58 51 43 54 50 42 40 32 31 34 29 28 30 31 30 30 34 35 33 36 38 35 33 33
10 12 12 11 11 14 15 13 15 13 14 17 9 22 48 44 33 42 44 23 17 36 40 33 46 56 47 25 16 36 39 28 38 49 52 51 42 36 40 54 46 19 22 28 20 31 41 48 53 42 43 45 33 31 25 29 41 29 29 48 46 39 38 44 49 44 44 45 39 37 33 33 35 24 25 31 26 27 29 28 32 33 35 39 38 36 36 35
11 14 12 12 12 11 16 15 13 15 15 13 17 31 39 35 34 41 40 29 30 47 50 48 50 44 31 18 25 42 27 22 46 47 41 39 30 31 38 48 51 38 36 33 18 21 28 29 33 36 42 41 36 35 24 25 39 37 32 35 40 42 33 40 51 41 38 49 48 35 35 51 42 21 30 33 23 30 32 30 36 35 37 41 38 39 39 38
13 16 14 13 11 10 14 12 13 17 11 15 37 47 40 39 39 31 34 43 43 45 51 53 43 29 29 33 44 52 24 15 41 41 31 31 29 33 32 31 44 45 36 31 27 25 17 16 30 43 45 42 41 42 35 29 32 40 38 26 36 51 38 41 60 52 40 55 65 46 43 62 47 27 36 31 27 38 35 34 38 35 39 41 40 42 41 42
15 17 15 14 13 12 11 9 14 15 14 27 41 46 55 52 30 22 36 42 37 36 36 34 29 21 25 30 36 45 33 23 33 28 24 34 34 35 36 35 43 38 22 23 32 28 14 15 36 50 46 44 45 46 44 34 24 31 38 34 41 43 32 37 54 57 47 48 59 50 43 54 45 34 39 32 35 44 40 39 38 36 42 42 42 45 43 44
17 19 17 16 14 13 10 10 17 17 19 33 37 47 66 48 23 39 53 42 40 41 26 16 19 18 18 19 24 36 35 29 33 23 17 29 27 27 40 41 41 42 32 23 24 27 24 22 35 46 42 41 48 48 47 41 33 33 34 37 40 34 38 46 43 53 60 50 50 51 50 56 48 41 41 38 42 47 43 42 39 39 43 43 46 47 44 46
20 24 21 18 16 14 12 12 20 24 25 34 43 55 58 36 31 56 60 47 47 40 21 12 16 21 21 16 18 29 28 23 32 27 16 21 19 22 39 41 44 54 44 26 21 28 32 25 30 46 44 41 45 42 44 44 37 34 33 33 33 34 51 56 42 48 55 47 53 60 60 59 54 51 45 37 43 48 44 44 44 43 43 45 49 48 46 46
21 27 23 19 17 14 15 19 25 28 30 44 55 50 47 47 53 62 59 54 48 32 20 21 23 26 29 26 24 26 25 22 24 21 15 16 17 21 30 34 44 57 48 33 31 34 31 21 26 40 41 39 38 36 44 51 46 41 38 40 40 43 57 55 47 56 54 47 59 65 58 54 56 59 49 37 44 48 46 48 46 42 42 46 50 50 49 48
20 25 23 19 18 19 21 25 29 29 33 57 69 54 50 57 60 63 63 57 46 31 27 32 30 25 28 36 34 27 31 35 26 19 18 20 19 21 27 32 44 58 51 34 34 40 29 20 28 38 36 32 29 32 41 49 56 56 49 54 50 42 52 50 45 60 60 52 60 62 54 55 57 53 43 41 47 46 45 49 45 40 42 47 51 53 53 52
20 28 28 19 19 22 23 26 37 43 44 53 62 58 59 62 61 65 66 61 55 44 39 39 33 29 29 30 25 23 36 47 41 29 26 25 19 15 26 38 43 50 46 33 37 43 29 24 40 42 31 26 25 35 44 45 56 61 56 63 61 49 54 51 47 63 64 55 65 66 53 50 49 43 40 45 48 45 45 45 43 42 43 48 52 54 55 54
25 33 28 19 21 24 25 34 48 58 55 49 49 54 64 67 60 60 64 64 59 47 43 45 42 42 38 27 24 31 36 44 49 42 34 29 20 16 31 41 36 38 45 46 48 47 36 35 44 38 28 27 27 38 52 56 59 55 51 60 64 61 58 48 54 72 65 55 69 73 63 53 43 39 43 47 46 44 44 43 44 46 47 51 54 54 56 56
28 28 20 18 25 25 25 34 43 50 55 57 57 59 68 72 62 57 63 61 53 46 45 46 42 38 36 32 34 37 30 31 42 42 39 37 30 35 49 45 34 32 38 44 45 40 36 35 35 38 40 38 38 43 50 53 49 43 49 59 61 63 62 56 68 77 66 59 60 61 62 55 42 40 44 45 44 44 46 47 47 48 50 54 55 56 57 58
24 21 18 21 26 26 28 37 38 42 56 64 64 61 64 69 65 61 60 55 49 50 50 49 40 31 38 44 39 36 29 22 25 28 33 41 42 54 63 49 37 33 29 36 41 30 32 41 38 39 40 37 42 50 48 46 43 43 55 64 63 68 70 65 67 63 59 63 58 55 61 50 40 48 51 49 51 50 51 52 51 52 54 55 56 58 58 57
18 18 20 21 26 25 29 40 41 49 71 71 59 60 60 58 60 61 58 53 50 48 45 44 41 38 49 50 39 42 42 24 17 24 32 41 48 61 69 56 44 40 35 39 34 21 33 50 40 30 33 32 31 35 38 47 50 47 52 57 57 61 60 56 60 60 61 66 63 61 58 41 39 52 55 57 63 60 57 56 55 56 56 55 57 58 57 57
18 23 24 21 25 25 26 36 37 49 77 69 47 55 60 51 54 59 58 52 48 48 44 42 45 44 47 46 37 42 47 31 25 35 41 46 55 65 73 68 54 47 47 43 31 32 50 56 42 33 37 34 25 24 34 43 42 37 42 52 55 56 57 61 69 67 61 64 64 57 50 40 39 42 46 58 66 64 62 60 58 58 57 57 59 58 57 56
17 24 30 21 20 22 26 34 32 35 50 43 32 44 51 50 51 50 57 58 52 53 49 44 47 40 37 43 38 37 45 39 35 41 44 52 65 67 70 77 69 57 56 48 34 43 56 52 49 48 42 36 30 29 38 40 34 30 36 45 52 58 62 62 62 59 53 58 57 46 44 49 42 35 47 65 68 65 66 62 58 60 58 58 61 59 58 58
19 21 28 25 22 24 25 33 37 37 37 31 33 41 44 53 54 43 52 63 59 56 48 43 51 47 42 44 34 31 43 42 39 47 48 52 61 59 56 69 77 70 61 49 40 50 58 56 60 57 48 48 43 35 40 43 39 40 41 41 45 57 66 61 54 53 52 54 50 39 45 54 44 37 52 68 67 64 65 62 60 61 60 60 62 61 60 62
22 22 27 30 30 30 31 36 38 42 44 36 40 47 46 53 56 48 56 63 60 61 50 39 48 56 56 48 30 29 39 31 23 35 50 54 54 54 49 50 67 75 63 52 50 50 52 63 79 76 64 62 55 45 49 52 50 52 51 49 47 51 60 61 53 51 53 54 48 43 51 54 45 45 57 63 63 62 63 62 62 61 61 62 64 63 61 65
23 24 24 25 29 31 37 45 43 46 51 41 40 51 53 56 59 53 52 49 47 56 53 41 46 59 65 57 38 33 39 32 16 17 38 49 47 56 56 45 64 81 67 59 63 48 39 64 92 89 69 62 61 59 61 64 68 66 58 54 54 54 61 65 62 61 65 66 60 60 67 64 54 57 64 62 62 64 65 64 63 61 62 64 65 63 62 68
23 26 24 22 26 30 39 53 52 49 52 45 45 54 52 54 60 53 44 37 33 44 53 49 54 65 70 66 55 43 39 39 29 21 32 37 32 40 42 35 59 83 73 69 72 56 44 61 79 73 57 57 66 70 71 71 73 74 67 57 53 57 67 72 70 70 71 70 69 69 71 67 61 66 70 66 65 67 67 65 62 61 63 66 66 64 66 74
20 26 29 25 27 32 41 52 48 40 45 47 48 51 41 40 50 43 31 31 32 34 40 43 48 54 60 65 60 45 34 35 37 34 37 39 37 40 37 31 47 70 75 77 80 72 60 63 72 66 57 64 71 70 72 70 62 58 58 52 48 56 68 69 67 70 67 63 65 63 59 62 69 75 76 70 68 67 65 64 64 65 67 67 65 67 73 82
Wind_Speed
12 13 10 7 6 5 5 5 5 5 5 6 7 6 6 6 7 7 7 7 7 6 5 4 4 4 5 5 5 5 3 1 1 2 4 6 10 12 13 14 13 12 9 8 7 6 5 5 4 4 3 2 1 3 4 5 4 2 3 3 1 2 3 4 6 5 2 3 5 7 6 2 3 3 2 3 5 7 9 12 15 16 18 19 18 15 12 9
12 12 8 6 5 4 3 3 3 3 4 5 4 4 5 6 6 6 6 6 6 6 5 4 4 5 6 6 6 6 4 1 1 3 6 9 11 13 14 14 12 11 9 7 7 5 4 4 4 3 4 3 1 1 3 3 4 3 3 2 3 5 4 3 4 3 1 3 7 8 6 3 4 3 2 4 5 5 6 11 14 18 20 20 20 18 15 12
12 10 6 5 5 4 3 2 1 2 2 2 2 2 3 3 3 4 4 5 5 5 4 4 4 5 6 7 7 6 4 2 2 5 8 11 12 13 14 13 12 11 8 7 7 6 4 2 3 2 3 3 1 2 2 1 3 2 3 1 5 5 4 3 2 1 2 6 8 7 6 4 5 4 3 4 5 4 5 11 13 17 19 19 19 18 17 14
9 9 6 6 6 6 5 3 2 2 2 2 1 1 0 0 1 2 2 3 3 3 3 3 4 5 7 7 7 6 4 2 3 7 9 11 12 13 13 12 11 9 7 6 6 6 5 2 2 2 3 2 1 2 1 1 1 2 4 3 4 4 1 2 2 3 4 6 6 8 8 7 7 6 6 4 4 5 10 16 16 16 18 17 17 16 16 16
8 7 7 6 6 6 5 4 3 3 3 2 2 1 1 0 1 1 1 1 2 2 2 3 4 6 7 7 7 6 3 2 4 7 10 12 12 12 12 11 9 7 6 6 5 5 5 3 1 2 2 1 2 2 1 2 2 2 3 3 2 4 1 2 1 4 6 6 7 8 6 7 9 7 8 7 5 9 14 17 14 13 14 13 14 14 14 16
7 7 6 5 5 5 5 4 3 3 3 2 2 2 1 1 1 1 1 2 3 4 4 4 4 6 7 7 7 6 2 1 5 8 10 11 10 10 11 10 8 5 5 6 6 5 4 3 0 2 2 1 2 2 2 2 2 2 2 1 1 2 0 2 3 4 6 6 7 7 6 9 8 7 9 11 15 19 21 20 18 17 16 16 17 17 17 17
7 6 4 4 4 4 3 3 2 2 2 2 2 3 3 2 2 1 1 2 4 6 6 5 5 6 7 6 5 4 2 1 5 9 9 9 9 10 9 8 7 4 5 6 5 4 2 2 1 3 4 2 1 1 3 3 2 2 2 1 3 1 2 3 3 4 5 6 7 7 9 10 7 6 7 14 23 25 24 23 23 23 21 21 20 20 20 19
5 4 3 2 2 2 2 2 2 2 2 3 3 4 4 3 2 1 2 3 5 6 6 6 6 6 6 5 5 3 3 4 7 8 8 8 7 8 8 7 6 5 6 6 5 2 1 2 3 3 2 2 1 1 3 3 2 3 1 1 2 2 2 2 3 4 5 6 7 8 11 13 12 8 9 21 29 24 22 23 22 21 20 20 19 19 19 20
4 3 2 1 1 1 2 2 2 3 3 4 4 4 4 2 1 2 3 5 6 6 6 6 6 6 6 5 4 2 3 6 8 9 8 7 6 6 6 6 5 5 5 5 5 2 2 4 4 2 2 2 3 2 4 2 2 1 1 1 2 2 2 2 4 4 6 7 7 8 11 14 11 6 11 21 21 16 15 16 17 17 17 16 15 16 18 19
2 1 1 1 1 1 2 3 3 3 4 4 4 4 3 1 2 4 5 6 6 7 7 6 7 6 5 3 3 2 3 6 8 9 8 6 4 4 4 4 4 4 4 5 5 5 5 5 4 3 3 3 4 3 4 3 1 1 2 4 4 2 2 5 5 4 7 6 5 6 11 14 7 1 8 16 12 11 12 11 13 14 13 14 13 14 16 18
0 1 1 1 1 1 2 2 2 3 4 4 3 2 1 1 3 4 5 6 7 8 7 8 7 5 4 2 4 3 3 5 7 8 8 5 2 2 2 2 3 4 4 5 6 7 7 6 4 2 2 2 3 3 4 3 2 2 2 2 3 5 3 9 6 4 8 3 6 10 11 9 3 5 8 15 14 12 12 11 12 13 13 14 14 15 16 17
0 1 1 1 0 0 1 1 3 3 4 3 2 1 2 3 4 5 7 8 9 8 8 7 5 5 4 3 4 3 4 6 7 9 9 7 3 2 1 1 2 3 3 5 6 7 6 5 6 3 1 3 2 2 3 3 2 3 5 0 6 7 3 9 7 5 7 2 9 13 8 4 3 8 9 9 10 11 11 13 14 15 16 16 17 18 18 18
1 1 1 1 1 1 1 2 3 3 3 2 2 2 4 5 6 8 9 10 9 7 6 5 4 3 2 2 3 4 6 7 8 9 9 8 4 2 2 1 0 2 3 4 5 5 6 5 5 6 5 3 2 2 2 3 3 2 5 2 4 7 2 6 7 7 5 1 11 11 4 7 6 11 9 9 11 12 14 16 17 18 19 19 20 22 22 20
3 3 3 2 2 2 2 2 2 2 2 2 3 4 5 7 9 9 9 8 6 5 3 2 2 3 1 2 2 5 7 7 7 8 6 4 2 2 3 2 1 1 2 4 4 4 5 5 4 6 7 5 3 3 2 5 5 0 2 2 3 3 4 5 7 8 4 2 12 8 2 9 10 10 11 12 13 13 17 19 20 22 23 24 24 24 25 24
5 4 4 4 3 2 1 1 2 2 2 4 5 6 7 8 9 8 7 6 3 2 1 0 2 2 2 3 2 5 7 6 6 9 7 3 2 1 2 2 2 0 1 3 4 4 4 3 4 5 4 4 3 3 3 4 4 3 2 3 3 1 5 7 6 8 4 4 10 5 3 9 11 10 7 7 12 14 19 23 24 27 27 27 27 26 27 26
4 4 4 3 2 1 1 1 1 1 3 5 7 8 8 8 7 6 5 3 1 0 1 2 2 2 2 2 3 4 8 6 6 10 7 4 4 2 1 2 3 2 1 1 2 3 3 2 5 8 6 3 3 4 4 4 4 4 3 1 4 2 4 7 3 6 6 4 6 4 2 7 8 8 9 13 19 19 22 27 27 27 27 26 25 25 26 26
4 3 2 2 2 2 2 1 1 2 5 7 8 8 8 7 6 4 2 1 1 1 2 2 4 2 1 3 3 6 9 7 9 9 4 3 4 4 2 1 2 2 2 0 1 1 2 2 3 5 7 5 3 3 4 3 3 4 3 1 3 2 2 5 3 6 10 4 4 3 3 9 11 16 25 25 21 21 22 26 27 25 25 23 22 22 21 22
4 3 2 2 1 1 2 2 3 4 6 8 8 7 6 4 3 2 0 1 1 1 1 4 3 2 1 5 5 8 9 7 10 8 2 2 3 3 3 2 1 2 2 2 2 3 3 3 3 2 5 6 4 5 4 1 2 2 1 1 3 3 2 4 5 5 10 5 4 4 5 12 14 18 28 23 14 16 20 22 24 22 22 21 20 19 18 18
4 3 3 2 1 1 1 3 4 6 7 7 7 5 3 2 2 1 1 2 1 1 0 5 6 2 2 6 6 8 7 5 10 8 1 0 1 2 2 2 2 1 2 1 3 7 5 3 5 3 3 3 3 4 4 5 4 4 3 3 2 4 4 5 6 4 8 6 6 4 5 12 15 16 23 24 17 14 17 17 18 18 18 18 18 17 16 15
5 3 3 3 2 1 1 4 5 6 7 7 6 4 3 3 3 3 3 5 7 8 5 5 8 3 2 5 6 8 5 3 9 8 2 1 2 1 3 2 2 4 3 0 3 6 5 4 3 1 3 3 3 2 4 4 4 4 3 2 3 4 5 5 5 5 6 5 5 3 6 11 14 14 17 22 18 11 12 13 14 17 18 19 18 16 15 13
5 4 2 2 2 1 2 4 6 8 7 6 6 4 1 1 1 2 5 9 10 9 7 7 8 6 3 4 7 9 4 1 6 7 4 2 3 2 3 2 3 5 5 2 2 4 5 4 1 5 7 4 3 4 5 4 4 4 3 1 2 3 6 5 2 5 6 5 5 5 10 14 13 11 13 15 10 7 9 11 14 18 20 21 19 17 16 13
6 5 3 2 1 0 2 5 8 9 8 7 6 1 3 3 2 3 4 5 6 6 6 6 6 7 5 4 7 9 4 2 5 7 5 3 1 1 2 5 5 2 4 3 1 4 5 2 4 6 6 5 4 4 4 3 4 3 2 1 3 2 4 5 3 4 4 3 6 7 10 14 12 11 11 8 4 5 10 10 11 16 20 22 21 18 16 14
6 5 3 2 1 1 2 6 9 9 8 6 3 1 1 2 5 4 4 4 4 3 3 2 4 5 5 4 5 7 6 4 6 9 9 4 4 5 5 5 4 2 5 4 2 1 2 2 5 7 7 6 4 3 4 3 2 1 1 0 4 3 2 3 3 5 4 1 4 7 8 10 8 8 7 4 3 6 11 13 14 17 20 22 21 19 18 17
7 6 4 2 1 2 3 7 10 10 8 4 1 2 5 5 5 4 3 3 1 1 1 1 4 4 5 6 4 4 7 6 6 9 11 7 5 6 4 4 4 3 3 2 5 4 1 2 5 7 4 4 2 1 3 2 2 2 3 3 3 2 1 4 4 7 5 2 1 5 6 6 5 7 6 4 5 7 14 20 23 25 25 26 26 24 23 22
8 7 4 2 1 3 4 8 11 10 8 3 3 6 6 4 3 1 1 2 1 1 1 0 4 4 4 7 5 1 4 5 6 9 10 9 6 3 3 3 3 2 3 2 4 2 0 2 5 5 3 3 3 2 2 4 2 4 3 5 5 3 2 3 6 7 5 3 3 3 5 5 5 5 6 5 7 7 11 19 23 27 29 31 32 30 28 27
8 7 4 2 1 3 5 8 10 12 9 4 4 5 4 2 3 3 1 3 2 2 1 1 2 3 3 6 4 2 1 3 4 7 8 8 7 2 2 2 2 1 5 4 2 1 1 2 3 4 4 4 3 2 5 5 3 2 2 4 5 4 1 3 4 4 2 4 4 3 3 4 6 5 6 5 7 8 9 13 19 26 28 31 32 32 31 30
8 7 4 1 2 4 6 6 8 12 9 5 3 3 3 3 3 5 3 4 3 2 1 1 0 3 3 4 5 2 1 3 1 4 7 7 7 2 1 1 1 1 3 3 1 0 3 3 2 4 4 3 1 3 4 6 6 2 3 5 4 2 2 2 1 1 2 4 4 2 4 2 5 6 6 4 5 9 10 10 15 23 26 28 31 32 32 31
6 6 4 1 2 5 6 4 5 10 10 7 4 3 4 3 3 5 2 3 2 0 2 0 2 3 4 3 4 2 0 3 1 2 6 6 5 3 0 2 4 2 1 2 1 2 3 2 3 4 4 1 3 4 5 7 3 3 3 4 2 1 3 3 4 2 1 3 4 3 2 1 5 6 5 4 5 8 9 8 11 17 22 27 30 31 30 29
5 5 4 2 2 5 6 4 3 8 10 8 4 4 5 2 4 4 4 1 2 1 2 1 2 2 6 2 3 4 2 3 2 2 5 4 4 4 2 2 6 5 2 2 3 3 1 1 4 6 4 4 4 3 4 5 1 2 5 4 3 3 2 3 4 2 2 2 3 4 1 1 5 5 4 5 5 4 7 5 7 13 21 25 29 30 28 27
5 5 4 2 2 4 6 4 3 6 7 6 5 6 5 1 3 5 2 2 1 0 1 1 2 4 7 2 2 5 3 3 6 5 3 2 3 4 5 4 4 5 1 3 1 3 0 2 1 3 3 4 3 1 2 3 2 4 5 2 3 4 3 3 2 3 3 2 5 5 2 1 2 5 1 2 3 2 4 4 5 12 20 24 28 29 28 27
6 5 4 3 2 4 5 5 4 6 7 6 7 8 6 1 4 5 1 3 0 2 1 1 2 3 5 1 0 5 4 4 8 6 3 2 3 4 5 2 1 3 3 4 2 4 2 1 1 2 3 4 5 3 2 2 2 4 3 2 3 4 3 3 4 3 2 4 5 4 3 2 1 5 3 1 3 2 2 3 5 9 15 21 26 28 28 27
6 5 5 4 2 3 5 5 5 8 7 7 10 9 5 2 2 2 3 2 1 2 0 1 2 2 3 1 1 3 3 3 6 5 2 2 2 2 2 2 1 3 4 2 2 5 3 3 2 1 3 4 4 2 2 3 3 3 2 4 4 4 4 3 3 1 2 5 3 2 2 1 5 7 3 1 2 1 1 4 4 6 11 18 24 27 27 27
6 5 5 4 2 3 5 5 6 9 8 11 13 7 5 4 2 4 2 2 1 1 1 1 2 1 0 1 1 2 1 1 3 4 1 1 2 2 1 2 4 1 1 2 1 4 4 4 2 1 2 4 4 3 1 1 2 1 2 3 2 2 3 4 4 3 4 4 2 2 2 2 4 4 2 4 3 3 5 6 6 7 11 16 22 25 26 27
5 5 5 4 2 3 4 5 8 10 11 14 11 5 5 1 5 3 2 4 1 2 2 2 2 1 1 0 1 2 0 1 2 2 1 1 2 2 2 2 3 2 3 2 0 1 1 4 2 1 1 3 3 3 3 3 3 2 2 5 3 3 2 4 4 2 5 5 3 3 1 3 2 1 2 6 5 6 7 7 8 11 13 17 22 25 26 27
4 5 5 3 1 3 4 6 10 11 15 14 7 5 3 4 4 2 3 4 1 1 1 1 2 2 3 2 2 1 1 1 1 2 2 0 2 3 2 3 4 3 4 1 2 1 1 5 4 1 1 3 2 2 3 4 2 1 2 4 2 3 4 2 3 4 2 4 4 2 3 4 3 1 0 5 6 5 6 7 10 14 16 20 23 24 25 27
3 4 4 3 1 2 4 8 11 14 16 12 5 3 4 4 2 3 2 1 1 2 1 1 2 2 3 4 3 2 1 1 1 2 1 2 3 4 3 3 4 4 4 3 3 1 1 5 4 2 2 2 2 2 1 1 1 1 2 2 3 4 5 3 2 1 3 1 4 2 3 5 2 2 1 3 2 3 5 7 10 13 14 18 22 23 24 25
2 2 4 3 1 2 5 10 13 15 14 8 4 3 5 2 2 3 1 1 1 2 4 1 1 1 2 2 2 2 1 1 2 2 1 3 2 4 3 2 2 3 3 3 2 2 2 4 5 1 1 1 0 1 3 3 2 3 2 4 2 2 4 4 0 3 3 2 4 1 4 5 3 2 3 0 3 4 4 3 4 8 14 18 21 23 23 24
2 3 4 3 1 2 7 13 15 14 10 5 1 4 3 2 2 2 2 1 1 2 3 3 2 1 2 2 2 2 1 1 2 1 1 2 2 4 4 2 1 1 2 4 1 1 3 2 6 1 2 2 2 1 2 4 3 3 3 3 2 2 1 1 1 1 0 3 4 4 4 3 3 4 5 3 1 1 2 2 2 8 14 17 20 22 22 22
3 3 3 2 1 3 10 14 13 11 6 3 2 3 1 2 2 2 3 2 1 1 1 3 1 1 3 4 3 2 2 3 2 0 1 1 2 3 4 3 2 1 1 4 2 1 3 1 4 3 1 2 2 1 2 2 3 3 1 1 1 3 4 2 2 3 3 2 3 4 6 3 6 5 6 6 4 2 3 5 4 6 9 11 15 19 20 20
4 3 2 2 1 5 12 14 10 7 4 2 4 2 0 2 2 3 4 2 1 2 2 3 2 1 3 4 3 2 1 2 3 2 2 2 2 3 3 3 4 3 1 2 2 0 2 2 4 4 3 1 1 3 5 5 3 2 1 1 1 1 1 1 1 2 4 3 2 2 5 5 5 3 6 8 5 4 4 2 3 3 5 8 13 16 18 19
5 3 2 2 1 8 13 11 5 3 2 1 2 1 0 1 1 3 5 4 2 2 2 2 3 3 3 3 3 2 2 2 3 3 3 3 3 2 1 3 7 7 3 2 1 1 1 3 3 4 3 3 4 3 3 6 6 5 5 5 4 3 3 1 3 2 2 3 4 3 5 7 4 3 6 7 5 5 5 2 1 2 3 8 12 15 19 19
3 2 2 1 3 10 12 6 2 2 2 2 2 1 1 1 1 2 4 4 2 2 2 1 2 3 3 3 2 3 3 2 3 3 3 4 5 3 1 4 10 10 6 2 3 2 2 3 1 5 5 5 4 3 1 3 4 4 3 3 3 4 5 4 3 3 0 2 3 3 2 7 3 3 5 6 7 6 4 2 1 2 6 10 14 17 19 20
3 1 2 1 6 11 9 1 2 2 0 1 1 2 3 2 2 2 3 4 2 1 1 2 3 3 2 2 2 3 4 3 4 5 4 4 4 2 1 6 9 8 5 1 2 2 2 2 0 5 5 2 4 4 2 1 3 2 2 2 4 3 3 5 5 3 2 3 3 2 3 6 3 3 6 8 8 6 3 0 1 5 10 13 16 19 21 22
3 1 1 3 8 11 6 2 1 2 3 1 2 1 3 4 4 4 3 4 4 3 1 2 3 3 2 1 2 3 4 3 3 4 3 2 3 2 1 6 9 6 3 2 3 4 3 1 1 3 7 6 6 6 5 3 0 3 3 2 3 3 6 3 2 3 1 5 6 4 6 6 3 3 4 6 6 5 2 2 5 8 13 17 18 21 23 25
2 1 1 4 8 8 4 2 4 2 1 1 2 3 2 3 5 6 4 4 5 5 2 2 1 1 1 2 1 2 3 3 3 2 1 1 3 1 1 5 7 4 2 2 5 6 4 2 3 2 4 5 6 6 4 2 2 2 2 3 4 5 7 3 2 3 3 5 6 6 7 5 3 5 5 4 4 4 2 3 8 12 15 19 21 23 26 27
1 1 1 2 6 7 3 1 2 2 2 1 2 3 2 2 3 4 5 4 5 6 4 2 1 1 1 1 1 3 4 3 1 1 1 3 4 1 1 3 5 4 2 3 5 4 2 1 4 6 8 7 9 8 2 3 2 3 4 5 6 7 6 5 3 4 5 2 3 8 9 8 7 8 8 6 3 3 4 7 12 14 17 20 22 24 27 28
0 1 1 0 3 4 3 2 3 2 2 3 2 2 2 3 3 2 4 4 4 5 4 3 3 3 2 3 3 3 3 1 0 2 3 4 4 2 1 2 3 4 4 4 4 4 3 2 5 8 11 10 10 10 2 2 4 7 7 7 8 7 7 7 7 7 4 2 7 11 7 7 13 10 6 5 3 3 5 10 14 17 19 21 22 25 27 27
1 2 2 1 1 1 1 3 3 3 3 3 2 1 1 3 2 2 4 3 2 4 4 2 4 6 6 5 3 2 1 0 2 3 3 2 2 2 2 2 3 3 4 4 3 4 4 4 5 5 8 10 10 11 7 4 6 7 8 11 10 8 10 12 14 11 6 6 13 12 5 8 13 10 4 4 3 4 7 11 14 18 20 21 23 25 28 26
3 3 2 2 3 2 2 2 2 4 3 2 2 2 2 4 5 4 2 1 2 4 6 4 6 7 7 5 3 2 3 2 3 5 3 2 2 1 1 2 2 1 2 3 1 3 4 3 2 2 5 8 9 12 9 6 7 7 10 14 11 10 12 14 14 11 8 11 15 13 13 15 13 8 4 3 6 8 10 13 15 17 19 22 24 26 28 27
4 3 1 2 3 2 1 1 2 4 2 1 2 4 3 5 6 4 3 5 3 2 5 6 7 4 5 6 5 5 7 7 2 3 4 4 2 2 3 3 3 2 1 2 0 2 3 3 1 4 3 8 6 6 5 4 6 7 11 13 11 11 11 11 11 8 6 11 14 10 13 15 8 1 2 6 9 9 10 13 17 19 20 22 26 29 29 26
7 6 3 1 2 1 1 1 3 3 1 1 3 4 2 4 6 3 3 9 9 4 6 9 5 1 2 4 7 11 14 11 6 5 5 5 4 4 4 3 6 5 2 2 1 2 3 2 1 4 3 7 2 3 4 3 3 7 13 15 14 12 8 7 7 6 7 8 7 4 7 9 3 2 4 8 9 9 11 13 18 23 24 23 26 29 28 22
8 8 6 3 2 2 3 1 2 2 2 3 5 5 3 4 4 2 2 6 9 8 8 10 6 2 1 4 8 12 15 13 11 11 9 8 9 8 7 6 8 7 5 5 1 1 4 3 0 2 2 6 3 3 3 4 5 8 10 11 12 9 7 5 4 6 8 7 5 5 6 4 1 2 5 7 7 9 12 15 18 23 27 27 27 26 22 18
Wind_Direction
150 141 129 131 143 157 179 190 197 201 220 232 234 238 243 249 249 252 252 253 257 257 257 242 223 214 214 234 238 223 201 198 303 333 355 6 357 350 348 345 339 332 330 327 329 324 292 268 252 240 224 203 172 189 193 214 193 135 104 106 217 201 204 199 189 202 191 259 303 335 333 306 299 293 258 273 255 246 251 247 244 247 249 251 254 256 264 267
126 140 126 102 120 140 154 174 193 203 223 231 233 235 240 244 246 252 252 253 253 254 253 236 224 212 212 230 233 222 199 191 320 355 6 2 350 346 347 344 340 338 339 341 343 339 304 255 237 228 217 205 183 164 165 194 180 141 103 122 224 205 212 206 191 219 192 287 297 323 325 267 277 302 268 263 263 261 264 262 254 255 259 258 259 257 257 259
106 119 108 87 102 101 93 103 143 175 195 199 203 213 229 243 254 264 260 256 251 252 248 234 222 207 209 226 228 216 203 224 341 2 1 354 346 344 344 341 344 344 343 348 349 348 335 267 225 211 200 188 179 172 139 138 185 164 114 163 239 216 239 255 242 282 300 304 305 321 320 287 291 295 248 243 281 288 250 259 259 260 270 271 269 264 256 256
104 104 97 87 83 77 75 74 88 103 113 125 139 151 167 289 300 292 276 262 251 251 246 233 221 206 208 221 224 215 218 275 348 355 348 346 344 341 342 342 348 348 345 349 348 349 346 326 246 196 168 164 154 168 132 38 205 176 150 191 229 195 243 287 270 324 330 320 306 311 320 310 304 288 250 245 294 288 257 263 267 271 282 285 282 276 261 254
111 106 103 94 84 83 83 82 93 98 105 114 108 99 79 12 313 293 273 241 220 215 211 216 215 205 208 217 220 214 225 328 338 343 340 340 341 338 340 344 349 347 346 350 345 344 341 334 293 162 136 115 67 117 90 32 133 175 196 216 202 161 138 344 332 328 337 336 317 320 329 305 303 287 253 236 233 259 270 276 278 280 286 289 290 286 270 255
113 109 112 104 85 84 85 89 98 101 104 95 77 58 33 9 314 279 219 192 181 182 190 198 199 196 203 210 211 213 191 30 325 334 337 336 339 339 342 346 349 346 351 356 341 332 336 340 195 139 113 80 50 104 41 5 177 206 264 290 122 160 355 2 6 346 340 339 327 322 308 300 300 285 269 246 243 261 273 278 280 281 285 289 292 288 279 266
119 111 106 95 78 76 79 89 90 85 78 54 40 20 6 350 325 301 220 183 172 176 181 186 185 185 194 199 199 199 132 72 332 336 339 337 338 341 347 347 345 350 358 349 329 318 331 357 133 126 100 80 62 138 24 359 153 153 274 346 89 90 6 9 354 342 337 326 313 307 294 288 278 280 286 261 261 271 275 275 277 280 284 286 287 286 282 275
117 106 96 90 89 77 70 80 72 65 48 29 16 1 353 342 323 258 209 181 175 173 171 176 177 178 183 186 183 156 73 8 340 344 343 338 337 344 353 352 351 0 352 337 334 327 323 51 89 99 101 94 128 152 20 12 79 84 291 292 92 59 19 359 336 320 321 313 299 295 283 277 276 278 276 272 277 282 276 271 274 277 280 282 285 287 284 278
114 110 118 141 127 90 69 68 51 39 18 3 351 343 341 334 265 193 175 168 166 162 163 165 160 160 159 162 167 126 27 343 341 345 344 337 335 347 359 1 3 356 348 356 9 29 73 61 60 61 123 120 101 51 27 40 345 46 111 90 88 33 5 326 306 303 313 306 302 294 282 285 289 286 272 275 286 290 278 270 271 273 275 277 281 287 287 280
99 101 183 209 119 65 51 45 32 18 359 344 334 332 333 337 153 159 158 159 156 153 152 143 139 140 143 156 138 95 336 331 341 337 337 336 327 350 10 12 12 3 10 36 46 59 61 50 39 71 115 106 93 41 31 66 18 55 109 103 73 22 20 357 317 310 327 306 313 305 282 287 279 218 270 278 290 288 282 274 269 270 269 274 278 287 292 283
186 248 255 289 10 44 40 33 18 6 352 343 341 352 25 115 141 152 152 150 146 142 137 130 129 123 117 110 107 101 323 327 340 336 338 343 333 341 19 29 27 29 39 56 62 58 52 48 43 77 128 87 90 45 49 58 52 81 82 138 14 11 50 10 347 330 351 320 320 310 280 288 237 185 253 276 292 288 280 273 269 270 270 277 283 289 293 286
287 309 303 297 307 65 59 24 9 8 2 4 24 65 109 137 149 147 140 138 136 133 129 123 117 112 105 73 80 74 359 344 347 350 342 337 340 297 297 21 25 49 57 58 59 49 44 49 46 53 118 119 117 57 70 42 64 92 53 222 325 5 35 359 356 335 351 330 340 332 293 314 179 220 262 285 295 288 281 275 275 276 275 282 286 288 291 288
33 14 12 29 49 64 51 14 2 5 13 46 88 121 135 142 144 138 135 133 132 131 126 115 98 86 81 66 59 35 9 353 351 356 334 319 330 255 237 259 269 76 68 55 52 39 39 49 56 74 87 104 120 87 108 40 66 128 37 68 337 4 347 353 6 333 342 56 355 4 309 299 239 234 275 298 296 291 283 277 281 282 281 286 287 287 288 286
47 40 32 27 38 48 28 1 350 2 40 99 127 141 142 140 140 139 136 134 132 132 125 108 73 28 39 90 44 14 3 346 339 349 340 322 328 211 223 241 226 85 72 49 39 32 46 59 68 80 72 67 109 113 78 18 39 91 2 47 24 9 279 330 14 359 22 4 352 26 198 284 275 269 284 285 289 288 281 279 285 285 284 286 285 284 284 285
33 25 16 10 19 23 7 347 340 5 81 121 138 145 142 141 145 147 145 141 135 130 134 75 22 1 64 77 14 2 357 337 327 347 3 36 61 172 207 236 241 176 96 37 19 27 47 70 67 59 49 48 89 95 25 360 19 30 14 330 347 32 283 315 12 36 42 301 338 30 208 279 285 290 299 292 294 289 283 283 284 284 284 285 284 283 283 284
23 9 355 346 340 322 286 263 327 62 121 132 136 138 136 140 148 153 159 165 183 277 299 289 308 329 64 35 339 350 352 344 348 351 1 42 51 72 137 215 219 227 249 359 15 37 44 85 77 53 38 38 61 70 42 13 356 6 50 277 306 333 313 320 356 32 20 308 334 21 241 284 281 280 301 306 302 294 285 284 286 288 289 290 289 286 284 284
23 2 343 325 296 264 237 215 156 136 138 138 136 136 135 140 148 153 178 231 316 335 1 319 281 276 19 358 329 346 352 354 356 352 5 50 49 65 75 132 179 228 246 155 48 48 38 66 95 53 40 50 43 68 64 11 321 328 26 40 294 281 297 319 305 357 15 15 327 348 228 265 272 281 293 299 302 293 282 287 293 296 296 296 296 292 290 287
25 359 347 332 302 261 220 177 150 152 152 150 143 141 141 143 156 153 234 278 273 244 19 358 338 203 330 4 4 350 350 356 357 359 43 60 47 70 76 88 110 203 197 148 39 29 34 45 91 65 21 27 19 62 97 217 221 242 316 14 316 295 258 285 275 338 16 12 293 303 259 273 283 291 298 306 315 296 285 291 298 301 303 303 302 300 300 295
23 2 346 342 344 349 154 140 147 159 161 160 152 146 147 136 128 99 322 272 252 178 289 359 21 134 265 349 3 346 346 3 2 3 26 4 68 79 61 65 68 125 150 143 7 23 31 28 63 60 1 359 359 75 129 180 160 166 186 162 238 285 278 263 260 309 4 340 287 280 271 285 297 299 303 312 321 304 293 300 304 312 319 319 317 315 314 310
22 10 347 342 357 21 109 131 146 162 162 163 159 147 143 125 87 57 66 85 92 90 80 31 30 40 301 347 356 347 350 16 6 6 352 298 188 102 28 34 66 57 56 26 332 11 36 49 65 168 212 215 231 168 121 128 119 120 131 150 217 245 280 276 273 305 359 345 277 285 303 289 292 289 294 309 320 318 311 317 327 337 341 339 336 333 331 331
17 16 355 342 350 30 115 138 152 164 165 165 161 148 182 227 59 85 99 89 89 84 64 46 35 32 25 8 3 360 0 40 15 14 16 355 204 216 5 31 76 45 3 300 282 352 46 79 162 217 202 185 191 155 113 94 81 86 126 247 289 235 260 272 280 304 8 17 280 330 332 301 296 293 295 312 324 334 335 334 340 348 354 355 352 349 347 350
9 10 3 342 333 66 137 151 159 168 170 168 168 174 307 266 184 148 129 100 95 84 58 46 37 34 37 21 8 8 13 51 27 29 37 39 126 160 32 56 80 69 344 346 333 2 42 113 227 206 165 117 80 99 101 93 89 79 112 20 319 274 275 299 331 322 1 5 292 341 337 300 299 297 294 313 320 335 350 350 349 354 359 4 5 2 1 5
4 6 3 340 316 207 163 161 167 172 171 173 195 266 342 170 157 143 125 114 108 82 58 42 30 28 32 26 8 15 37 50 20 22 30 43 75 72 80 76 77 61 3 22 133 101 46 243 217 171 148 115 72 56 77 80 88 122 159 73 291 302 346 301 319 333 325 298 283 316 314 292 309 316 295 309 331 358 21 27 27 20 11 14 20 19 18 22
7 5 357 339 266 213 173 168 174 174 170 168 138 127 121 120 134 140 113 99 100 60 87 44 14 8 18 16 360 26 55 56 25 16 24 42 67 64 80 95 74 62 6 40 121 128 209 238 152 132 128 125 129 353 84 99 332 288 199 171 226 279 281 245 293 324 323 35 308 314 321 294 328 341 301 319 356 16 31 32 30 27 27 33 40 41 42 43
9 4 355 347 228 199 169 176 183 181 173 142 105 132 133 114 98 90 65 68 327 301 119 37 8 6 2 5 357 90 68 55 37 19 22 36 44 64 88 81 74 116 198 176 105 105 319 185 154 123 66 94 132 258 208 162 320 314 229 184 176 189 229 276 322 338 354 0 317 12 10 298 314 330 284 318 355 353 21 30 24 24 33 41 44 46 49 50
10 5 0 3 192 181 171 184 195 192 180 153 139 145 163 161 53 3 16 56 329 279 119 165 6 9 351 0 7 152 86 15 28 19 22 28 25 73 116 40 43 133 184 168 116 177 125 119 149 129 108 93 89 267 239 161 106 328 237 170 144 137 182 305 335 359 1 292 286 75 112 262 310 317 281 317 354 344 10 32 21 19 31 40 41 43 47 48
8 8 5 15 163 177 181 192 206 201 190 184 186 182 204 197 25 354 3 40 347 261 111 172 231 16 3 2 13 134 254 333 359 11 15 17 9 38 182 298 61 118 174 140 40 269 144 99 70 90 98 97 97 260 229 141 115 266 217 141 119 119 248 255 154 151 238 278 314 22 143 214 297 286 281 315 7 0 7 23 15 14 26 38 43 45 47 48
4 9 9 11 166 184 192 203 213 205 203 211 222 225 205 192 343 346 67 75 330 285 76 140 165 39 6 3 24 76 332 355 68 348 0 8 357 15 217 223 167 165 170 136 270 268 151 163 194 145 100 154 220 229 191 144 118 254 190 132 124 182 210 176 137 173 288 348 324 315 129 170 270 272 311 353 42 11 354 6 8 11 23 36 43 45 48 49
360 2 5 353 190 191 201 217 220 207 210 220 225 210 188 201 317 5 83 134 299 102 86 23 181 309 337 340 22 27 43 25 33 336 350 14 360 16 81 146 138 126 52 105 196 236 143 174 195 153 143 212 227 243 180 145 67 184 140 100 69 73 78 93 105 130 44 23 263 276 357 147 267 286 340 18 48 0 325 338 0 14 27 36 41 43 45 45
354 351 356 341 209 198 206 211 212 197 199 210 202 176 161 133 16 59 66 248 279 37 282 340 245 303 341 357 348 6 48 21 0 359 355 43 18 41 107 128 115 115 24 22 142 240 80 71 168 154 181 190 156 78 128 126 110 128 115 68 45 46 42 54 66 98 63 320 255 267 291 119 289 288 289 10 359 298 292 318 348 14 27 35 40 42 42 41
349 350 349 333 253 215 211 210 207 187 182 187 172 156 148 72 62 96 201 241 154 330 332 19 304 345 18 76 278 357 17 360 0 16 13 10 14 35 92 120 61 63 5 354 336 303 358 74 258 229 196 154 107 79 60 88 116 112 83 27 15 358 15 26 355 44 78 268 260 274 280 141 235 258 225 313 325 252 235 330 340 360 21 34 40 42 42 40
347 348 347 336 286 235 212 211 202 183 179 166 155 151 137 64 28 177 249 313 14 299 327 43 323 42 35 10 34 348 343 349 8 37 43 6 2 357 69 169 189 24 345 302 312 326 314 232 275 350 191 174 130 104 9 15 53 83 65 49 29 346 357 357 321 333 210 239 251 302 311 212 237 251 235 90 24 350 34 28 2 0 22 34 39 42 41 38
344 346 347 339 298 227 200 199 184 175 172 157 152 140 91 80 239 223 260 321 330 314 22 51 3 84 278 323 4 327 296 303 5 35 104 19 4 316 297 193 173 83 314 224 323 348 332 295 311 62 217 198 158 145 223 338 73 136 148 101 85 34 10 315 289 301 287 261 257 302 321 270 267 273 211 140 92 33 44 54 51 47 43 40 41 41 38 34
337 347 344 340 311 206 192 183 174 167 162 156 147 99 76 134 236 218 253 262 260 359 28 71 20 356 26 16 295 294 311 317 355 27 4 13 15 295 280 240 185 117 104 130 26 59 344 301 260 161 213 183 173 176 164 137 124 190 165 122 141 149 162 261 248 258 287 290 290 298 273 210 213 300 170 144 98 55 66 78 70 63 54 46 42 39 34 29
328 346 345 348 331 205 190 176 170 163 161 156 121 71 125 222 250 209 239 246 224 350 335 63 69 44 355 321 304 287 150 273 325 24 354 212 190 217 222 218 201 148 118 146 258 141 163 270 260 320 313 150 174 214 142 103 93 229 134 106 152 181 153 194 202 192 255 315 303 268 228 216 200 293 69 121 96 63 76 79 63 54 49 45 40 35 29 23
320 346 354 354 266 215 184 174 167 163 164 153 83 70 192 229 237 186 211 199 143 161 154 10 71 74 319 308 330 3 78 251 308 359 301 229 213 206 204 216 197 166 138 151 221 156 80 276 283 4 353 99 131 203 125 90 186 139 118 170 218 177 121 110 253 349 66 319 284 243 254 289 327 323 337 93 68 27 40 44 50 49 45 42 36 30 22 16
313 352 4 358 275 217 178 171 163 165 168 141 94 207 218 229 193 191 190 94 174 138 118 175 238 178 251 281 300 309 345 293 308 342 265 256 243 197 198 235 187 178 167 155 224 202 146 272 293 43 172 337 56 165 44 37 106 114 169 214 203 108 83 98 215 351 35 257 274 264 248 281 337 276 238 307 10 359 350 358 43 43 38 35 28 20 13 9
328 343 354 1 306 193 171 166 163 168 162 117 102 237 221 200 203 195 179 161 201 83 102 185 228 198 187 207 270 259 183 254 300 344 240 259 263 182 162 177 138 108 165 141 172 276 121 279 300 310 171 299 355 132 19 12 53 112 178 191 120 137 245 80 146 252 278 266 281 293 283 255 217 224 213 204 260 320 320 336 29 25 30 28 17 10 5 3
346 344 355 4 312 178 165 163 166 167 145 111 224 244 220 228 245 190 184 210 211 115 167 213 215 53 170 176 209 216 188 214 221 294 221 224 260 199 161 169 160 107 132 130 145 224 109 130 282 286 214 289 9 125 218 296 31 64 130 328 40 162 183 167 154 172 181 245 271 303 320 275 222 215 175 175 188 121 44 20 6 12 29 23 9 4 358 355
345 352 359 345 252 172 165 163 163 158 126 147 204 214 323 263 242 195 193 205 189 174 223 215 170 175 204 198 213 202 170 207 187 187 228 227 254 242 198 158 147 151 146 82 101 158 87 128 251 291 319 276 228 204 196 180 145 115 182 245 284 174 164 195 213 141 142 185 218 275 295 268 241 213 157 157 161 131 103 39 334 350 26 8 357 356 353 349
345 358 341 318 200 172 166 161 146 123 119 173 210 205 270 244 210 203 202 200 215 237 231 201 178 189 193 199 228 196 158 201 197 203 244 235 226 247 235 161 154 150 124 78 111 207 136 159 215 281 297 226 232 242 196 178 166 158 179 197 189 159 129 143 274 289 112 172 189 179 263 269 249 169 147 146 156 161 149 137 320 327 347 343 344 349 350 347
356 20 343 316 179 172 164 152 47 60 120 186 226 210 222 250 226 202 199 201 234 261 238 224 198 190 181 181 199 176 164 192 203 204 234 226 217 227 214 168 165 153 130 136 229 215 140 123 195 266 248 227 262 305 170 183 153 135 176 189 152 140 136 147 220 257 207 206 183 136 250 273 257 151 148 149 152 150 145 155 250 317 328 335 340 343 345 343
2 13 326 263 173 168 161 138 341 336 241 197 228 227 218 222 200 175 189 200 215 221 251 260 213 204 222 188 152 174 193 197 190 198 227 235 233 255 189 163 165 154 129 145 231 181 132 100 262 279 288 311 331 350 27 55 95 129 234 166 147 161 149 156 180 183 185 215 179 133 257 265 259 191 167 153 149 142 129 115 307 323 330 335 337 339 341 341
346 327 236 176 175 173 173 188 207 262 283 335 7 280 233 229 212 191 191 204 202 172 185 250 225 219 243 119 132 201 210 205 208 213 217 212 229 291 149 168 173 171 167 187 170 158 184 220 87 315 319 331 342 352 351 338 190 199 238 211 178 133 102 115 155 119 240 229 175 173 256 258 215 198 181 154 161 178 166 14 343 332 332 334 335 337 339 338
338 292 222 188 190 191 202 193 161 179 254 333 323 276 241 248 228 211 212 219 208 191 196 266 236 192 128 100 85 250 226 217 242 263 327 241 252 294 111 182 191 193 207 179 150 150 183 218 142 184 272 279 284 299 301 274 219 206 236 220 205 165 144 159 147 128 232 235 162 178 247 260 170 185 223 215 194 210 229 345 341 335 333 331 332 334 335 334
349 280 288 210 203 206 230 236 150 136 146 172 293 283 224 253 261 233 222 230 222 205 213 257 197 116 71 152 226 264 247 224 235 308 302 246 263 290 128 193 199 195 181 150 148 132 116 235 204 205 220 224 241 255 235 132 194 246 242 220 211 200 176 139 118 178 205 195 205 223 235 264 263 233 231 250 290 299 300 327 331 330 329 328 329 329 329 329
298 234 289 327 225 227 251 249 198 157 151 175 219 270 230 250 307 293 215 224 228 208 221 243 193 182 194 185 205 248 245 234 287 268 246 229 251 291 235 196 189 193 171 152 162 127 89 270 237 217 229 238 250 259 254 94 246 248 249 240 218 197 174 165 197 215 169 137 262 250 210 233 262 255 225 235 265 280 294 315 321 323 324 323 324 323 323 323
261 257 261 198 224 224 235 254 225 173 148 164 191 217 233 242 268 244 213 230 247 204 209 246 224 213 201 173 168 219 216 6 268 243 244 250 263 338 338 223 190 190 166 157 175 136 128 252 234 203 244 258 264 268 266 258 255 245 249 254 238 202 187 199 221 221 171 198 254 263 232 232 261 278 259 227 257 283 293 307 314 316 318 318 320 320 319 320
273 283 263 215 230 220 197 254 227 167 166 172 213 220 207 213 233 240 194 128 307 229 195 230 256 231 208 189 179 218 213 209 268 258 222 208 226 213 303 246 197 184 148 142 184 149 152 246 223 158 277 272 260 265 264 254 261 261 256 255 248 228 211 214 232 230 203 231 254 268 276 271 272 278 263 272 307 303 304 313 313 312 315 317 318 317 317 318
265 274 267 223 240 234 178 195 145 143 169 182 229 240 209 199 228 255 188 175 230 249 177 221 259 230 198 206 203 228 223 194 220 274 180 168 238 211 211 219 165 116 80 119 186 174 174 245 152 96 311 279 261 273 272 240 244 260 267 262 250 243 233 225 237 229 211 248 260 265 274 276 277 286 295 311 316 311 310 315 313 313 315 317 316 314 314 313
253 257 276 275 245 204 148 165 131 129 170 199 214 239 237 211 213 229 231 210 207 192 181 207 229 134 148 207 210 240 247 227 234 265 204 200 248 224 216 210 150 136 160 179 169 159 172 244 13 69 316 279 299 12 323 291 265 259 267 264 248 235 224 216 224 205 191 221 245 259 267 264 266 14 326 312 313 310 308 311 314 313 313 313 310 307 307 306
257 258 262 259 270 223 170 138 99 126 239 219 201 216 242 244 207 155 305 250 220 217 224 215 197 127 129 216 219 247 263 257 260 272 259 251 256 244 243 227 176 158 168 170 159 175 162 171 124 95 262 274 310 358 315 328 319 272 255 247 235 217 202 221 245 220 198 182 180 220 240 228 192 352 327 315 310 306 306 310 310 307 307 308 303 300 302 305